Location: Santa Teresa Spring
(37.2333°N, 121.7000°W)
Time: 19:53:59
(UTC-07:00)

ISS - Visible Passes

Search period start: 26 July 2017 00:00
Search period end: 05 August 2017 00:00
Orbit: 400 x 408 km, 51.6° (Epoch: 27 July)

Date Brightness Start Highest point End Pass type
(mag) Time Alt. Az. Time Alt. Az. Time Alt. Az.
26 Jul -2.2 21:01:59 10° WSW 21:05:02 38° NW 21:08:07 10° NE visible
27 Jul -0.6 21:47:57 10° NW 21:49:37 13° NNW 21:51:17 10° N visible
28 Jul -0.9 20:54:36 10° WNW 20:57:03 19° NNW 20:59:30 10° NNE visible
30 Jul -0.6 20:47:51 10° NW 20:49:09 12° NNW 20:50:27 10° N visible
02 Aug -0.8 23:02:21 10° N 23:03:24 13° N 23:03:24 13° N visible
04 Aug -1.1 22:53:19 10° NNW 22:54:40 18° N 22:54:40 18° N visible
